Location: Newark
(43.6583°N, 1.6617°E)
Time: 17:58:01
(UTC+00:00)

Vanguard 2 Rocket - Pass Details

Date: 26 August 2019
Orbit: 554 x 3327 km, 32.9° (Epoch: 15 September)

Event Time Altitude Azimuth Distance (km) Brightness Sun altitude
Exits shadow 00:14:11 18° 117° (ESE) 3,858 9.8 -35.6°
Drops below altitude 10° 00:19:50 10° 96° (E) 5,054 10.7 -35.5°
Sets 00:26:10 0° 83° (E) 6,572 11.5 -35.3°
